Terminal Aerodrome Forecast
Issued by NWS Norman, OK

Home | Current Version | Previous Version | Text Only | Print | Product List | Glossary On
Versions: 1 2 3 4 5 6 7 8 9 10 11 12 13 14 15 16 17 18 19 20 21 22 23 24 25 26 27 28 29 30 31 32 33 34
000
FTUS44 KOUN 260520
TAFOKC
TAF
KOKC 260520Z 2606/2706 16009KT P6SM SCT120
     FM260900 14006KT 4SM BR BKN100
     FM261500 18013KT P6SM BKN250
     FM262200 17010KT P6SM BKN100 PROB30 2622/2703 5SM -TSRA
      BKN020CB=

USA.gov is the U.S. government's official web portal to all federal, state and local government web resources and services.